EW2349 Weather Reports


Display with metric or nautical units.
time (UTC)temp
F
wind
direction
speed
MPH
gust
MPH
rain 1hr
in
rain 24hr
in
rain mn
in
humidity
%
barometer
mb
20211023083047 35 157 11.0 21.0 0.00 0.00 0.00 83 1010.7
20211023081512 35 141 11.0 21.0 0.00 0.00 0.00 83 1010.8
20211023080011 36 152 12.0 20.0 0.00 0.00 0.00 83 1010.7
20211023074508 35 146 13.0 19.0 0.00 0.00 0.00 83 1010.9
20211023073020 35 145 14.0 19.0 0.00 0.00 0.00 83 1011.1
20211023070211 35 155 8.0 16.0 0.00 0.00 0.00 83 1011.6
20211023064717 36 161 10.0 16.0 0.00 0.00 0.00 82 1011.6
20211023063253 36 129 13.0 20.0 0.00 0.00 0.00 82 1011.4
20211023061600 36 360 13.0 18.0 0.00 0.00 0.00 82 1011.5
20211023060141 36 360 13.0 22.0 0.00 0.00 0.00 82 1011.7
20211023054638 36 360 14.0 20.0 0.00 0.00 0.00 82 1011.9
20211023053059 36 360 15.0 21.0 0.00 0.00 0.00 82 1012.0
20211023051606 36 360 15.0 20.0 0.00 0.00 0.00 82 1012.3
20211023050112 37 117 16.0 22.0 0.00 0.00 0.00 81 1012.4
20211023044706 37 115 16.0 21.0 0.00 0.00 0.00 81 1012.5
20211023043118 37 127 14.0 19.0 0.00 0.00 0.00 81 1012.8
20211023041537 37 118 14.0 19.0 0.00 0.00 0.00 80 1013.0
20211023040118 37 134 12.0 17.0 0.00 0.00 0.00 80 1013.2
20211023034655 37 130 12.0 17.0 0.00 0.00 0.00 79 1013.2
20211023033105 38 128 13.0 18.0 0.00 0.00 0.00 78 1013.4
20211023031549 38 134 13.0 19.0 0.00 0.00 0.00 78 1013.5
20211023030038 39 138 10.0 17.0 0.00 0.00 0.00 77 1013.5
20211023024545 40 360 11.0 17.0 0.00 0.00 0.00 76 1013.5
20211023023035 40 360 14.0 20.0 0.00 0.00 0.00 75 1013.5
20211023021538 40 119 14.0 19.0 0.00 0.00 0.00 74 1013.6
20211023020037 41 121 16.0 22.0 0.00 0.00 0.00 73 1013.5
20211023014535 42 360 14.0 22.0 0.00 0.00 0.00 72 1013.4
20211023013059 42 114 17.0 22.0 0.00 0.00 0.00 71 1013.3
20211023011605 43 360 16.0 23.0 0.00 0.00 0.00 71 1013.4
20211023010032 43 121 16.0 22.0 0.00 0.00 0.00 70 1013.5
20211023004534 44 114 13.0 19.0 0.00 0.00 0.00 70 1013.7
20211023003034 44 360 10.0 15.0 0.00 0.00 0.00 69 1013.7
20211023001534 46 109 9.0 14.0 0.00 0.00 0.00 67 1013.8
20211023000041 47 360 10.0 13.0 0.00 0.00 0.00 65 1014.1
20211022234713 48 127 12.0 21.0 0.00 0.00 0.00 63 1014.0
20211022233021 49 112 13.0 21.0 0.00 0.00 0.00 61 1014.1
20211022231530 50 134 13.0 20.0 0.00 0.00 0.00 59 1014.1
20211022230022 51 122 15.0 24.0 0.00 0.00 0.00 57 1014.2
20211022224529 52 138 17.0 24.0 0.00 0.00 0.00 55 1014.2
20211022223032 52 126 18.0 23.0 0.00 0.00 0.00 55 1014.3
20211022221618 53 112 18.0 25.0 0.00 0.00 0.00 54 1014.3
20211022220028 53 123 16.0 23.0 0.00 0.00 0.00 54 1014.4
20211022214559 53 114 14.0 25.0 0.00 0.00 0.00 54 1014.5
20211022213021 53 123 16.0 25.0 0.00 0.00 0.00 54 1014.5
20211022211517 52 103 14.0 25.0 0.00 0.00 0.00 56 1014.7
20211022210016 52 124 16.0 21.0 0.00 0.00 0.00 56 1014.7
20211022204510 52 109 13.0 21.0 0.00 0.00 0.00 58 1014.6
20211022203003 51 110 16.0 21.0 0.00 0.00 0.00 59 1014.9
20211022201640 51 118 13.0 22.0 0.00 0.00 0.00 59 1015.2
20211022200115 50 97 13.0 18.0 0.00 0.00 0.00 60 1015.6
20211022194606 49 105 13.0 17.0 0.00 0.00 0.00 62 1015.7
20211022193126 48 111 11.0 17.0 0.00 0.00 0.00 63 1016.2
20211022191617 48 119 12.0 21.0 0.00 0.00 0.00 64 1016.3
20211022190110 47 89 8.0 14.0 0.00 0.00 0.00 64 1016.7
20211022184608 47 92 10.0 15.0 0.00 0.00 0.00 66 1017.0
20211022183059 46 107 9.0 13.0 0.00 0.00 0.00 68 1017.3
20211022181608 46 128 8.0 14.0 0.00 0.00 0.00 68 1017.5
20211022180051 45 66 7.0 11.0 0.00 0.00 0.00 69 1017.7
20211022174540 44 111 8.0 12.0 0.00 0.00 0.00 71 1017.6
20211022173043 43 134 9.0 14.0 0.00 0.00 0.00 73 1017.6
20211022171524 42 106 5.0 10.0 0.00 0.00 0.00 75 1017.5
20211022170017 42 116 9.0 12.0 0.00 0.00 0.00 77 1017.7
20211022164521 41 120 7.0 14.0 0.00 0.00 0.00 78 1017.9
20211022163012 40 108 11.0 16.0 0.00 0.00 0.00 80 1017.7
20211022161506 39 108 11.0 16.0 0.00 0.00 0.00 83 1017.7
20211022154625 35 100 2.0 7.0 0.00 0.00 0.00 92 1017.9
20211022153136 32 232 2.0 4.0 0.00 0.00 0.00 92 1018.5
20211022151559 31 311 0.0 3.0 0.00 0.00 0.00 92 1018.5
20211022150110 29 340 3.0 6.0 0.00 0.00 0.00 93 1018.5
20211022144602 28 10 3.0 5.0 0.00 0.00 0.00 93 1018.4
20211022143055 27 286 3.0 5.0 0.00 0.00 0.00 93 1018.5
20211022141603 27 320 2.0 5.0 0.00 0.00 0.00 93 1018.5
20211022140037 26 275 3.0 6.0 0.00 0.00 0.00 92 1018.4
20211022134535 26 277 1.0 4.0 0.00 0.00 0.00 92 1018.3
20211022133053 26 259 3.0 5.0 0.00 0.00 0.00 92 1018.1
20211022131553 26 267 0.0 4.0 0.00 0.00 0.00 92 1018.2
20211022130038 27 263 0.0 5.0 0.00 0.00 0.00 92 1018.0
20211022124542 26 250 1.0 3.0 0.00 0.00 0.00 92 1017.9
20211022123025 26 284 1.0 3.0 0.00 0.00 0.00 91 1017.8
20211022121521 27 284 0.0 3.0 0.00 0.00 0.00 92 1017.7
20211022120015 27 259 2.0 4.0 0.00 0.00 0.00 92 1017.7
20211022114529 28 270 2.0 6.0 0.00 0.00 0.00 92 1017.8
20211022113012 27 273 4.0 7.0 0.00 0.00 0.00 92 1017.9
20211022111533 28 304 0.0 4.0 0.00 0.00 0.00 91 1017.7
20211022110046 27 279 2.0 4.0 0.00 0.00 0.00 91 1017.7
20211022104525 27 283 2.0 4.0 0.00 0.00 0.00 91 1017.7
20211022103017 28 287 2.0 6.0 0.00 0.00 0.00 91 1017.7
20211022101503 28 293 5.0 8.0 0.00 0.00 0.00 91 1017.8
20211022094613 29 291 2.0 4.0 0.00 0.00 0.00 91 1017.6
20211022093136 28 279 2.0 3.0 0.00 0.00 0.00 90 1017.6
20211022091703 28 259 2.0 4.0 0.00 0.00 0.00 89 1017.4
20211022090204 28 277 2.0 4.0 0.00 0.00 0.00 88 1017.4
20211022084636 29 302 2.0 5.0 0.00 0.00 0.00 88 1017.3